TimePDT,TemperatureF,Dew PointF,Humidity,Sea Level PressureIn,VisibilityMPH,Wind Direction,Wind SpeedMPH,Gust SpeedMPH,PrecipitationIn,Events,Conditions,WindDirDegrees,DateUTC
12:56 AM,72.0,30.9,22,29.74,10.0,WSW,3.5,-,N/A,,Clear,250,2013-05-04 07:56:00
1:56 AM,72.0,25.0,17,29.72,10.0,West,8.1,-,N/A,,Clear,260,2013-05-04 08:56:00
2:56 AM,68.0,26.1,21,29.71,10.0,West,6.9,-,N/A,,Clear,260,2013-05-04 09:56:00
3:56 AM,64.9,25.0,22,29.70,10.0,West,8.1,-,N/A,,Clear,270,2013-05-04 10:56:00
4:56 AM,66.0,28.9,25,29.69,10.0,WSW,5.8,-,N/A,,Clear,240,2013-05-04 11:56:00
5:56 AM,63.0,23.0,22,29.70,10.0,West,6.9,-,N/A,,Partly Cloudy,260,2013-05-04 12:56:00
6:56 AM,69.1,28.9,22,29.72,10.0,SSW,3.5,-,N/A,,Partly Cloudy,210,2013-05-04 13:56:00
7:56 AM,78.1,25.0,14,29.72,10.0,SW,6.9,-,N/A,,Clear,220,2013-05-04 14:56:00
8:56 AM,86.0,24.1,10,29.73,10.0,SW,10.4,-,N/A,,Clear,230,2013-05-04 15:56:00
9:56 AM,90.0,10.9,5,29.72,10.0,SSW,6.9,-,N/A,,Clear,200,2013-05-04 16:56:00
10:56 AM,91.9,21.9,8,29.72,10.0,SE,9.2,16.1,N/A,,Clear,130,2013-05-04 17:56:00
11:56 AM,93.0,21.9,8,29.70,10.0,ESE,10.4,-,N/A,,Clear,120,2013-05-04 18:56:00
12:56 PM,97.0,21.0,6,29.67,10.0,SE,11.5,-,N/A,,Clear,130,2013-05-04 19:56:00
1:56 PM,97.0,21.0,6,29.65,10.0,SSE,8.1,-,N/A,,Clear,150,2013-05-04 20:56:00
2:56 PM,97.0,10.0,4,29.64,10.0,SW,15.0,21.9,N/A,,Clear,230,2013-05-04 21:56:00
3:56 PM,96.1,19.0,6,29.62,10.0,WSW,19.6,27.6,N/A,,Clear,240,2013-05-04 22:56:00
4:56 PM,91.9,28.0,10,29.62,9.0,WSW,26.5,36.8,N/A,,Clear,240,2013-05-04 23:56:00
5:56 PM,88.0,25.0,10,29.62,5.0,WSW,31.1,40.3,N/A,,Haze,240,2013-05-05 00:56:00
6:56 PM,84.0,25.0,12,29.64,10.0,WSW,19.6,33.4,N/A,,Clear,240,2013-05-05 01:56:00
7:56 PM,82.0,23.0,11,29.68,10.0,WSW,24.2,-,N/A,,Clear,250,2013-05-05 02:56:00
8:56 PM,80.1,23.0,12,29.71,10.0,WSW,23.0,28.8,N/A,,Clear,250,2013-05-05 03:56:00
9:56 PM,78.1,21.9,12,29.71,10.0,WSW,17.3,-,N/A,,Clear,250,2013-05-05 04:56:00
10:56 PM,77.0,21.0,12,29.73,10.0,West,18.4,-,N/A,,Clear,260,2013-05-05 05:56:00
11:56 PM,75.9,30.9,19,29.74,10.0,West,26.5,-,N/A,,Clear,260,2013-05-05 06:56:00